SCP
0 0 0 0 0 0 0 0 0 0 0 0 0 0 0 0 0 0 0 0 0 0 0 0 0 0 0 0 0 0 0 0 0 0 0 0 0 0 0 0 0 0 0
0 0 0 0 0 0 0 0 0 0 0 0 0 0 0 0 0 0 0 0 0 0 0 0 0 0 0 0 0 0 0 0 0 0 0 0 0 0 0 0 0 0 0
-0 0 0 0 0 0 0 0 0 0 0 0 0 0 0 0 0 0 0 0 0 0 0 0 0 0 0 0 0 0 0 0 0 0 0 0 0 0 0 0 0 0 0
0 0 0 0 0 0 0 0 0 0 0 0 0 0 0 0 0 0 0 0 0 0 0 0 0 0 0 0 0 0 0 0 0 0 0 0 0 0 0 0 0 0 0
0 0 0 0 0 0 0 0 0 0 0 0 0 0 0 0 0 0 0 0 0 0 0 0 0 0 0 0 0 0 0 0 0 0 0 0 0 0 0 0 0 0 0
0 0 0 0 0 0 0 0 0 0 0 0 0 0 0 0 0 0 0 0 0 0 0 0 0 0 0 0 0 0 0 0 0 0 0 0 0 0 0 0 0 0 0
0 0 0 0 0 0 0 0 0 0 0 0 0 0 0 0 0 0 0 0 0 0 0 0 0 0 0 0 0 0 0 0 0 0 0 0 0 0 0 0 0 0 0
0 0 0 0 0 0 0 0 0 0 0 0 0 0 0 0 0 0 0 0 0 0 0 0 0 0 0 0 0 0 0 0 0 0 0 0 0 0 0 0 0 0 0
0 0 0 0 0 0 0 0 0 0 0 0 0 0 0 0 0 0 0 0 0 0 0 0 0 0 0 0 0 0 0 0 0 0 0 0 0 0 0 0 0 0 0
0 0 0 0 0 0 0 0 0 0 0 0 0 0 0 0 0 0 0 0 0 0 0 0 0 0 0 0 0 0 0 0 0 0 0 0 0 0 -0 -0 -0 0 0
0 0 0 0 0 0 0 0 0 0 0 0 0 0 0 0 0 0 0 0 0 0 0 0 0 0 0 0 0 0 0 0 0 0 0 0 0 0 0 -0 -0 -0 -0
0 0 0 0 0 0 0 0 0 0 0 0 0 0 0 0 0 0 0 0 0 0 0 0 0 0 0 0 0 0 0 0 0 0 0 0 0 0 0 0 0 -0 -0
0 0 0 0 0 0 0 0 0 0 0 0 0 0 0 0 0 0 0 0 0 0 0 0 0 0 0 0 0 0 0 0 0 0 0 0 0 0 0 0 0 0 0
0 0 0 0 0 0 0 0 0 0 0 0 0 0 0 0 0 0 0 0 0 0 0 0 0 0 0 0 0 0 0 0 0 0 0 0 0 0 0 0 0 0 0
0 0 0 0 0 0 0 0 0 0 0 0 0 0 0 0 0 0 0 0 0 0 0 0 0 0 0 0 0 0 0 0 0 0 0 0 0 0 0 0 0 0 0
0 0 0 0 0 0 0 0 0 0 0 0 0 0 0 0 0 0 0 0 0 0 0 0 0 0 0 0 0 0 0 0 0 0 0 0 0 0 0 0 0 0 0
0 0 0 0 0 0 0 0 0 0 0 0 0 0 0 0 0 0 0 0 0 0 0 0 0 0 0 0 0 0 0 0 0 0 0 0 0 0 0 0 0 0 0
0 0 0 0 0 0 0 0 0 0 0 0 0 0 0 0 0 0 0 0 0 0 0 0 0 0 0 0 0 0 0 0 0 0 0 0 0 0 0 0 0 0 0
0 0 0 0 0 0 0 0 0 0 0 0 0 0 0 0 0 0 0 0 0 0 0 0 0 0 0 0 0 0 0 0 0 0 0 0 0 0 0 0 0 0 0
0 0 0 0 0 0 0 0 0 0 0 0 0 0 0 0 0 0 0 0 0 0 0 0 0 0 0 0 0 0 0 0 0 0 0 0 0 0 0 0 0 0 0
0 0 0 0 0 0 0 0 0 0 0 0 0 0 0 0 0 0 0 0 0 0 0 0 0 0 0 0 0 0 0 0 0 0 0 0 0 0 0 0 0 0 0
0 0 0 0 0 0 0 0 0 0 0 0 0 0 0 0 0 0 0 0 0 0 0 0 0 0 0 0 0 0 0 0 0 0 0 0 0 0 0 0 0 0 0
0 0 0 0 0 0 0 0 0 0 0 0 0 0 0 0 0 0 0 0 0 0 0 0 0 0 0 0 0 0 0 0 0 0 0 0 0 0 0 0 0 0 0
0 0 0 0 0 0 0 0 0 0 0 0 0 0 0 0 0 0 0 0 0 0 0 0 0 0 0 0 0 0 0 0 0 0 0 0 0 0 0 0 0 0 0
0 0 0 0 0 0 0 0 0 0 0 0 0 0 0 0 0 0 0 0 0 0 0 0 0 0 0 0 0 0 0 0 0 0 0 0 0 0 0 0 0 0 0
0 0 0 0 0 0 0 0 0 0 0 0 0 0 0 0 0 0 0 0 0 0 0 0 0 0 0 0 0 0 0 0 0 0 0 0 0 0 0 0 0 0 0
Wind_Speed_500mb
11 10 9 7 9 8 10 11 10 8 6 6 6 6 5 5 6 5 9 9 11 11 12 13 14 14 13 13 14 13 10 5 9 13 12 13 15 15 18 18 20 19 18
21 16 12 12 13 9 10 11 11 10 9 8 8 7 7 6 10 13 12 13 13 14 14 15 15 16 17 13 14 14 12 13 11 14 18 20 21 22 22 24 24 25 24
27 24 19 18 16 13 13 14 15 14 12 11 11 11 12 14 15 19 18 18 18 18 19 20 20 20 20 21 20 18 18 21 19 22 21 23 27 30 27 28 27 28 28
34 31 28 24 22 20 18 17 17 17 16 15 15 16 19 20 24 26 28 30 29 28 27 27 28 26 25 27 26 25 26 24 26 27 27 31 33 33 35 37 39 37 35
41 39 34 30 29 26 25 23 21 20 21 22 23 25 27 29 31 32 33 35 37 40 41 38 37 37 35 33 33 32 33 34 35 35 38 37 38 39 42 44 45 44 44
41 46 42 38 37 32 31 30 28 26 28 29 31 34 37 38 39 38 40 44 45 45 46 47 48 45 44 43 39 42 40 42 46 48 49 48 48 48 51 52 54 52 53
44 41 44 43 42 40 33 34 34 33 32 33 36 41 45 47 50 49 47 45 44 47 47 45 43 48 45 48 49 49 50 50 49 56 59 59 60 60 61 54 59 59 59
49 46 42 43 42 39 38 40 39 38 37 42 42 43 50 53 55 51 41 42 39 40 47 42 43 43 43 47 52 55 57 58 55 57 60 64 74 72 70 69 67 63 67
55 51 45 37 42 42 38 37 38 39 45 45 48 45 27 24 46 55 47 48 50 52 50 47 52 58 55 55 54 57 58 62 63 65 66 67 70 72 80 77 80 76 76
62 60 56 52 50 49 47 46 47 50 49 51 53 63 56 58 59 44 60 59 57 56 53 50 53 54 60 59 64 62 62 63 68 70 76 74 73 77 82 85 78 87 86
62 63 61 58 55 56 49 49 49 59 59 51 56 58 56 52 61 63 69 65 59 58 57 58 58 57 60 61 64 63 64 64 67 69 73 77 79 80 81 85 85 89 80
52 56 58 59 58 57 55 54 52 51 53 52 44 55 59 55 60 55 64 67 63 74 74 67 65 57 56 58 56 55 58 58 59 64 68 70 72 71 72 76 81 86 89
45 45 45 49 49 51 46 52 50 52 47 46 47 45 47 48 49 53 53 60 64 71 77 74 69 65 61 55 48 45 47 47 50 51 55 58 63 66 72 74 73 77 83
45 38 38 38 38 40 45 45 45 45 41 42 47 47 42 43 46 47 46 53 64 69 73 80 81 74 64 57 57 55 59 60 55 55 57 61 64 68 71 75 79 81 79
43 37 36 39 39 39 39 40 39 43 40 39 43 39 41 49 47 46 45 48 52 57 64 75 76 73 69 68 69 68 67 65 63 63 62 63 66 69 69 71 73 78 82
38 34 34 35 35 37 37 38 40 46 40 40 45 48 44 41 44 45 47 50 55 63 70 73 78 80 74 75 71 71 72 71 71 69 68 68 67 69 71 75 78 78 78
37 34 32 33 35 37 40 40 35 35 43 44 38 40 41 42 45 46 47 48 53 58 74 83 78 73 72 75 76 75 75 74 75 73 68 67 68 67 70 78 83 83 83
33 31 28 29 30 28 27 29 29 27 28 28 30 31 30 34 37 40 44 47 52 55 64 85 81 78 77 77 79 81 81 85 87 83 80 75 69 69 74 73 74 81 84
24 23 21 21 21 20 19 18 18 17 17 20 24 27 30 34 38 41 45 50 55 61 66 79 93 85 83 80 85 87 92 97 99 97 95 89 85 85 75 75 75 76 82
20 18 15 13 11 9 8 10 14 18 21 25 29 33 37 39 43 48 54 57 61 66 71 78 88 92 86 83 84 89 98 90 97 92 94 95 95 87 79 70 70 74 79
20 17 12 8 7 9 13 16 20 23 26 28 31 36 39 42 46 49 55 57 61 66 70 76 86 91 91 90 85 81 88 97 103 86 84 99 85 89 85 78 78 79 78
17 13 10 6 6 9 15 20 25 28 32 36 38 40 44 47 51 53 56 60 61 63 67 72 79 83 87 82 81 81 83 89 104 89 69 102 90 96 96 100 91 82 79
16 11 6 3 8 14 21 28 32 34 37 41 46 51 53 53 57 60 61 63 64 64 66 68 74 75 83 76 78 85 82 81 95 105 96 106 93 98 87 92 87 84 80
9 3 2 9 16 22 29 35 39 41 44 46 48 50 52 53 53 56 60 62 64 65 66 68 71 77 74 78 75 81 90 92 97 100 87 90 97 101 98 91 91 83 77
3 6 12 18 23 26 29 35 40 44 47 48 49 50 54 56 55 58 62 65 68 71 70 65 66 67 70 75 75 74 72 76 92 94 85 80 93 87 85 101 90 72 57
11 18 23 22 22 25 30 37 44 49 50 50 49 52 53 57 60 57 55 62 73 78 73 70 70 72 70 71 67 62 65 70 79 86 75 68 87 82 80 81 61 68 71
Wind_Direction_500mb
243 234 234 231 230 210 207 205 203 199 195 203 205 198 215 273 337 6 8 2 6 8 4 357 359 350 342 338 347 342 333 287 208 189 194 197 203 205 210 203 197 194 185
240 244 241 244 236 230 231 228 226 223 228 233 243 242 248 274 306 326 324 324 330 333 339 335 335 330 330 322 311 311 302 305 271 216 218 213 214 222 213 215 217 212 200
240 252 249 250 249 241 240 242 236 236 241 250 262 262 267 282 295 305 304 303 307 309 313 315 314 312 313 311 310 297 275 264 260 245 243 238 224 227 220 221 218 216 211
240 244 251 253 254 248 245 245 243 246 250 257 263 264 271 278 281 283 288 297 297 298 297 297 297 298 297 294 291 283 289 272 253 252 249 243 237 238 232 234 231 227 224
237 241 244 248 252 252 247 245 244 249 254 261 266 271 275 279 280 284 291 292 295 299 299 295 292 290 289 286 282 261 257 253 256 259 258 248 245 246 240 239 241 236 233
237 238 240 242 247 247 248 245 245 250 257 262 269 279 282 282 282 286 293 292 292 288 288 292 294 290 287 286 281 279 259 256 265 272 268 261 249 253 243 243 241 246 242
235 236 238 243 245 247 250 250 247 255 258 266 273 279 284 291 293 295 290 291 293 290 287 282 283 287 284 288 288 283 276 265 260 263 272 272 273 269 269 269 252 250 246
237 240 237 240 246 250 249 247 250 259 265 266 267 280 292 293 295 302 298 298 300 295 296 295 292 287 285 290 294 288 283 274 268 266 256 261 267 267 263 258 257 255 250
239 241 248 249 252 256 254 251 253 262 265 269 272 267 275 286 294 297 297 295 298 302 295 297 291 293 295 293 295 295 293 290 289 282 273 267 259 260 259 258 261 258 250
243 247 251 255 259 262 259 261 261 261 266 269 267 272 271 278 283 288 296 301 298 297 299 297 298 294 297 291 291 290 290 287 286 284 280 281 278 272 263 265 267 254 252
245 251 252 256 257 258 261 266 266 265 277 268 274 282 287 281 286 275 282 294 299 299 299 297 295 294 297 295 291 291 286 284 284 282 279 279 281 277 272 271 270 264 271
249 247 251 254 258 260 261 262 267 271 272 275 277 277 279 282 285 290 284 291 295 300 301 300 299 304 300 302 298 292 290 285 281 278 277 277 277 279 277 274 269 268 265
250 245 249 249 254 257 257 257 261 266 270 271 274 278 284 285 291 290 289 293 294 299 299 300 303 304 306 307 306 303 298 291 292 288 286 284 282 280 278 276 275 271 267
251 253 246 244 249 250 252 257 258 263 271 273 278 275 278 281 283 286 290 296 299 297 299 301 306 310 312 309 305 304 300 298 297 294 290 288 286 284 282 279 276 274 271
245 245 245 249 250 253 258 258 260 263 272 269 274 278 280 281 283 284 285 287 291 288 292 296 298 306 306 305 304 304 301 302 299 296 290 288 286 285 282 279 278 277 274
241 242 245 247 251 254 254 259 261 262 261 266 277 276 277 282 282 283 285 285 285 287 288 288 292 299 302 303 304 302 302 300 299 297 293 290 284 281 281 280 277 275 273
237 241 242 236 244 249 251 250 245 255 270 274 270 275 280 283 284 286 286 285 286 287 288 293 297 299 298 301 304 305 304 300 299 299 297 296 294 288 280 280 276 275 275
234 233 235 236 231 235 249 257 260 265 271 279 284 288 294 297 300 299 298 297 296 297 296 296 300 302 302 305 304 304 305 308 308 306 305 300 295 295 292 289 281 276 274
214 221 226 230 233 239 246 254 263 271 281 290 297 301 304 305 307 306 305 304 303 302 301 299 301 304 305 307 308 307 309 308 305 304 303 300 297 295 291 285 287 285 279
190 188 191 197 207 224 251 276 288 291 295 298 301 301 301 301 302 303 301 301 300 299 298 298 300 304 306 309 308 309 307 307 305 305 304 301 300 299 295 290 287 283 280
171 172 177 196 236 274 289 295 299 302 304 305 306 306 306 308 304 301 300 302 302 303 303 303 303 304 306 309 310 309 303 306 303 303 300 301 302 300 295 290 290 292 287
166 168 180 211 260 290 300 305 305 305 305 304 305 303 304 305 303 303 304 307 308 306 304 304 302 302 304 307 306 304 302 304 305 309 301 299 298 296 295 297 300 298 294
163 167 173 254 297 306 308 306 303 310 315 317 316 315 314 312 312 311 310 308 305 303 303 303 300 299 303 306 307 307 304 300 297 301 302 301 301 297 294 297 295 297 299
152 142 341 328 319 312 313 319 318 318 318 319 319 318 316 316 314 311 308 306 305 304 304 303 300 300 302 305 305 303 303 300 301 303 302 292 303 298 298 295 297 304 302
62 348 336 329 325 328 320 314 316 318 318 321 323 324 324 323 322 320 317 314 311 311 315 307 302 302 303 301 298 299 297 296 290 296 303 293 299 300 297 300 305 306 304
19 352 331 326 317 318 322 323 324 325 326 326 329 330 332 330 328 326 319 316 311 313 313 313 309 306 305 304 307 303 303 298 295 293 298 294 295 300 297 301 306 305 301
Wind_Speed_850mb
11 10 9 7 9 8 10 11 10 8 6 6 6 6 5 5 6 5 9 9 11 11 12 13 14 14 13 13 14 13 10 5 9 13 12 13 15 15 18 18 20 19 18
21 16 12 12 13 9 10 11 11 10 9 8 8 7 7 6 10 13 12 13 13 14 14 15 15 16 17 13 14 14 12 13 11 14 18 20 21 22 22 24 24 25 24
27 24 19 18 16 13 13 14 15 14 12 11 11 11 12 14 15 19 18 18 18 18 19 20 20 20 20 21 20 18 18 21 19 22 21 23 27 30 27 28 27 28 28
34 31 28 24 22 20 18 17 17 17 16 15 15 16 19 20 24 26 28 30 29 28 27 27 28 26 25 27 26 25 26 24 26 27 27 31 33 33 35 37 39 37 35
41 39 34 30 29 26 25 23 21 20 21 22 23 25 27 29 31 32 33 35 37 40 41 38 37 37 35 33 33 32 33 34 35 35 38 37 38 39 42 44 45 44 44
41 46 42 38 37 32 31 30 28 26 28 29 31 34 37 38 39 38 40 44 45 45 46 47 48 45 44 43 39 42 40 42 46 48 49 48 48 48 51 52 54 52 53
44 41 44 43 42 40 33 34 34 33 32 33 36 41 45 47 50 49 47 45 44 47 47 45 43 48 45 48 49 49 50 50 49 56 59 59 60 60 61 54 59 59 59
49 46 42 43 42 39 38 40 39 38 37 42 42 43 50 53 55 51 41 42 39 40 47 42 43 43 43 47 52 55 57 58 55 57 60 64 74 72 70 69 67 63 67
55 51 45 37 42 42 38 37 38 39 45 45 48 45 27 24 46 55 47 48 50 52 50 47 52 58 55 55 54 57 58 62 63 65 66 67 70 72 80 77 80 76 76
62 60 56 52 50 49 47 46 47 50 49 51 53 63 56 58 59 44 60 59 57 56 53 50 53 54 60 59 64 62 62 63 68 70 76 74 73 77 82 85 78 87 86
62 63 61 58 55 56 49 49 49 59 59 51 56 58 56 52 61 63 69 65 59 58 57 58 58 57 60 61 64 63 64 64 67 69 73 77 79 80 81 85 85 89 80
52 56 58 59 58 57 55 54 52 51 53 52 44 55 59 55 60 55 64 67 63 74 74 67 65 57 56 58 56 55 58 58 59 64 68 70 72 71 72 76 81 86 89
45 45 45 49 49 51 46 52 50 52 47 46 47 45 47 48 49 53 53 60 64 71 77 74 69 65 61 55 48 45 47 47 50 51 55 58 63 66 72 74 73 77 83
45 38 38 38 38 40 45 45 45 45 41 42 47 47 42 43 46 47 46 53 64 69 73 80 81 74 64 57 57 55 59 60 55 55 57 61 64 68 71 75 79 81 79
43 37 36 39 39 39 39 40 39 43 40 39 43 39 41 49 47 46 45 48 52 57 64 75 76 73 69 68 69 68 67 65 63 63 62 63 66 69 69 71 73 78 82
38 34 34 35 35 37 37 38 40 46 40 40 45 48 44 41 44 45 47 50 55 63 70 73 78 80 74 75 71 71 72 71 71 69 68 68 67 69 71 75 78 78 78
37 34 32 33 35 37 40 40 35 35 43 44 38 40 41 42 45 46 47 48 53 58 74 83 78 73 72 75 76 75 75 74 75 73 68 67 68 67 70 78 83 83 83
33 31 28 29 30 28 27 29 29 27 28 28 30 31 30 34 37 40 44 47 52 55 64 85 81 78 77 77 79 81 81 85 87 83 80 75 69 69 74 73 74 81 84
24 23 21 21 21 20 19 18 18 17 17 20 24 27 30 34 38 41 45 50 55 61 66 79 93 85 83 80 85 87 92 97 99 97 95 89 85 85 75 75 75 76 82
20 18 15 13 11 9 8 10 14 18 21 25 29 33 37 39 43 48 54 57 61 66 71 78 88 92 86 83 84 89 98 90 97 92 94 95 95 87 79 70 70 74 79
20 17 12 8 7 9 13 16 20 23 26 28 31 36 39 42 46 49 55 57 61 66 70 76 86 91 91 90 85 81 88 97 103 86 84 99 85 89 85 78 78 79 78
17 13 10 6 6 9 15 20 25 28 32 36 38 40 44 47 51 53 56 60 61 63 67 72 79 83 87 82 81 81 83 89 104 89 69 102 90 96 96 100 91 82 79
16 11 6 3 8 14 21 28 32 34 37 41 46 51 53 53 57 60 61 63 64 64 66 68 74 75 83 76 78 85 82 81 95 105 96 106 93 98 87 92 87 84 80
9 3 2 9 16 22 29 35 39 41 44 46 48 50 52 53 53 56 60 62 64 65 66 68 71 77 74 78 75 81 90 92 97 100 87 90 97 101 98 91 91 83 77
3 6 12 18 23 26 29 35 40 44 47 48 49 50 54 56 55 58 62 65 68 71 70 65 66 67 70 75 75 74 72 76 92 94 85 80 93 87 85 101 90 72 57
11 18 23 22 22 25 30 37 44 49 50 50 49 52 53 57 60 57 55 62 73 78 73 70 70 72 70 71 67 62 65 70 79 86 75 68 87 82 80 81 61 68 71
Wind_Direction_850mb
243 234 234 231 230 210 207 205 203 199 195 203 205 198 215 273 337 6 8 2 6 8 4 357 359 350 342 338 347 342 333 287 208 189 194 197 203 205 210 203 197 194 185
240 244 241 244 236 230 231 228 226 223 228 233 243 242 248 274 306 326 324 324 330 333 339 335 335 330 330 322 311 311 302 305 271 216 218 213 214 222 213 215 217 212 200
240 252 249 250 249 241 240 242 236 236 241 250 262 262 267 282 295 305 304 303 307 309 313 315 314 312 313 311 310 297 275 264 260 245 243 238 224 227 220 221 218 216 211
240 244 251 253 254 248 245 245 243 246 250 257 263 264 271 278 281 283 288 297 297 298 297 297 297 298 297 294 291 283 289 272 253 252 249 243 237 238 232 234 231 227 224
237 241 244 248 252 252 247 245 244 249 254 261 266 271 275 279 280 284 291 292 295 299 299 295 292 290 289 286 282 261 257 253 256 259 258 248 245 246 240 239 241 236 233
237 238 240 242 247 247 248 245 245 250 257 262 269 279 282 282 282 286 293 292 292 288 288 292 294 290 287 286 281 279 259 256 265 272 268 261 249 253 243 243 241 246 242
235 236 238 243 245 247 250 250 247 255 258 266 273 279 284 291 293 295 290 291 293 290 287 282 283 287 284 288 288 283 276 265 260 263 272 272 273 269 269 269 252 250 246
237 240 237 240 246 250 249 247 250 259 265 266 267 280 292 293 295 302 298 298 300 295 296 295 292 287 285 290 294 288 283 274 268 266 256 261 267 267 263 258 257 255 250
239 241 248 249 252 256 254 251 253 262 265 269 272 267 275 286 294 297 297 295 298 302 295 297 291 293 295 293 295 295 293 290 289 282 273 267 259 260 259 258 261 258 250
243 247 251 255 259 262 259 261 261 261 266 269 267 272 271 278 283 288 296 301 298 297 299 297 298 294 297 291 291 290 290 287 286 284 280 281 278 272 263 265 267 254 252
245 251 252 256 257 258 261 266 266 265 277 268 274 282 287 281 286 275 282 294 299 299 299 297 295 294 297 295 291 291 286 284 284 282 279 279 281 277 272 271 270 264 271
249 247 251 254 258 260 261 262 267 271 272 275 277 277 279 282 285 290 284 291 295 300 301 300 299 304 300 302 298 292 290 285 281 278 277 277 277 279 277 274 269 268 265
250 245 249 249 254 257 257 257 261 266 270 271 274 278 284 285 291 290 289 293 294 299 299 300 303 304 306 307 306 303 298 291 292 288 286 284 282 280 278 276 275 271 267
251 253 246 244 249 250 252 257 258 263 271 273 278 275 278 281 283 286 290 296 299 297 299 301 306 310 312 309 305 304 300 298 297 294 290 288 286 284 282 279 276 274 271
245 245 245 249 250 253 258 258 260 263 272 269 274 278 280 281 283 284 285 287 291 288 292 296 298 306 306 305 304 304 301 302 299 296 290 288 286 285 282 279 278 277 274
241 242 245 247 251 254 254 259 261 262 261 266 277 276 277 282 282 283 285 285 285 287 288 288 292 299 302 303 304 302 302 300 299 297 293 290 284 281 281 280 277 275 273
237 241 242 236 244 249 251 250 245 255 270 274 270 275 280 283 284 286 286 285 286 287 288 293 297 299 298 301 304 305 304 300 299 299 297 296 294 288 280 280 276 275 275
234 233 235 236 231 235 249 257 260 265 271 279 284 288 294 297 300 299 298 297 296 297 296 296 300 302 302 305 304 304 305 308 308 306 305 300 295 295 292 289 281 276 274
214 221 226 230 233 239 246 254 263 271 281 290 297 301 304 305 307 306 305 304 303 302 301 299 301 304 305 307 308 307 309 308 305 304 303 300 297 295 291 285 287 285 279
190 188 191 197 207 224 251 276 288 291 295 298 301 301 301 301 302 303 301 301 300 299 298 298 300 304 306 309 308 309 307 307 305 305 304 301 300 299 295 290 287 283 280
171 172 177 196 236 274 289 295 299 302 304 305 306 306 306 308 304 301 300 302 302 303 303 303 303 304 306 309 310 309 303 306 303 303 300 301 302 300 295 290 290 292 287
166 168 180 211 260 290 300 305 305 305 305 304 305 303 304 305 303 303 304 307 308 306 304 304 302 302 304 307 306 304 302 304 305 309 301 299 298 296 295 297 300 298 294
163 167 173 254 297 306 308 306 303 310 315 317 316 315 314 312 312 311 310 308 305 303 303 303 300 299 303 306 307 307 304 300 297 301 302 301 301 297 294 297 295 297 299
152 142 341 328 319 312 313 319 318 318 318 319 319 318 316 316 314 311 308 306 305 304 304 303 300 300 302 305 305 303 303 300 301 303 302 292 303 298 298 295 297 304 302
62 348 336 329 325 328 320 314 316 318 318 321 323 324 324 323 322 320 317 314 311 311 315 307 302 302 303 301 298 299 297 296 290 296 303 293 299 300 297 300 305 306 304
19 352 331 326 317 318 322 323 324 325 326 326 329 330 332 330 328 326 319 316 311 313 313 313 309 306 305 304 307 303 303 298 295 293 298 294 295 300 297 301 306 305 301